sat.trackr.live / text

‹ back to catalog

INTELSAT 905 (IS-905)

NORAD 27438 · 2002-027A

PAYLOAD ACTIVE UNKNOWN

§ Identity

Operator
Country
ITSO
Launch date
2002-06-05
Launch site
FRGUI
Launch vehicle
Mass (kg)
RCS (m²)
15.89

Purposes: comms

External: N2YO · Heavens-Above · Gunter

§ Orbital elements

Epoch: 2026-09-19T15:17:31.947648Z

Period
1,436.09 min
Inclination
6.9844°
Eccentricity
0.0003149
Mean motion
1.00272183 rev/d
Perigee alt
35,773.2 km
Apogee alt
35,799.8 km
Semi-major
42,164.6 km
B*
0.0000e+0
RAAN
68.6198°
Arg perigee
136.5457°
Mean anomaly
245.5753°
Rev number
5,231

§ Raw data

INTELSAT 905 (IS-905)1 27438U 02027A   26262.63717532  .00000091  00000+0  00000+0 0  99952 27438   6.9844  68.6198 0003149 136.5457 245.5753  1.00272183 52319

JSON: /api/v1/satellites/27438 · /tle

For live sub-satellite position, see the globe view (requires WebGL).

§ Visibility from observer

Set your observer location to see the next 7 days of passes ≥ 10°. The values pass through the URL so the page stays shareable.

No JS? Fill the form by hand. The geolocation button needs JavaScript.